Weather in Baturino

Russia / Kurgan Oblast     55°51′24″N   63°40′08″E
temp.,
°C
wind,
m/s
gust,
m/s
humid.,
%
clouds,
%
prec.,
mm/h
press.,
hPa
HPBL,
m
23 april, fri
fri2323:00+9s4752100 0.0 1033129
02:00+7s495693 0.0 1033149
05:00+6s3665100 0.0 1033113
08:00+9ssw4559100 0.0 1034354
11:00+12s61044100 0.0 10331389
14:00+12ssw71048100 0.0 10321709
17:00+13ssw5852100 0.1 10321533
20:00+10sse3463100 0.1 103166
24 april, sat
sat2423:00+9sse51155100 0.1 1030303
02:00+8sse41055100 0.0 1029266
05:00+7s3855100 0.0 1028250
08:00+6sse5980100 0.3 1027974
11:00+8se6953100 0.4 10251254
14:00+11sse6952100 0.1 10231685
17:00+11ese61038100 0.1 10212049
20:00+10s61041100 0.0 1021572
25 april, sun
sun2523:00+7ese51061100 0.0 1019570
02:00+6ese51161100 0.0 1018470
05:00+5e5106094 0.0 1016300
08:00+7ese5105823 0.0 1015460
11:00+12se564169 0.0 10141069
14:00+14se563489 0.0 10131745
17:00+15s563637 0.0 10131996
20:00+10s366399 0.0 1013149
26 april, mon
mon2623:00+6wnw378598 0.6 1014240
02:00+5sw411882 0.0 1015326
05:00+5wsw613705 0.0 1016475
08:00+7wsw812583 0.0 10161251
11:00+7w8116096 0.0 10181613
14:00+11wnw7103897 0.0 10182577
17:00+12w7113166 0.0 10182752
20:00+9w3543100 0.0 101880
27 april, tue
tue2723:00+8wsw1245100 0.0 101812
02:00+7s1145100 0.0 101711
05:00+6ssw3565100 0.0 1016137
08:00+6sse4582100 0.3 1015589
11:00+7e4577100 0.3 1013788
14:00+8e4572100 0.1 1012865
17:00+8ese3474100 0.1 1011732
20:00+6sse1284100 0.0 101016